Content
SEND FEEDBACK

Daily
Averages
Monthly
Summary
United States of America

HONOLULU, HAWAII


Home > North America > United States > Hawaii
Elevation: 7 feet     Latitude: 21 20N     Longitude: 157 55W

WEATHER
 
SELECT A DAY
Number of Records: 177,778;   Date Range: 1/1/95 - 7/23/14
 
SHARE

PRINT THIS DATA

[ ← Previous Day ]
WEATHER ALMANAC - JANUARY 31, 2013
[ Next Day → ]
[ °C ]   °F
Weather ElementAverageHighLow
Temperature74.1 °F82 °F (1:53 pm)66 °F (2:53 am)
Dewpoint62.6 °F64 °F (9:53 am)62.1 °F (4:53 am)
Humidity68.3 %90 % (2:53 am)51 % (1:53 pm)
Barometer30.07 in30.11 in (9:53 pm)30.02 in (2:53 pm)
Wind Speed9.6 mph18.4 mph (4:53 pm)
Wind Gust24.2 mph (4:53 pm)
Weather ElementAverage
Visibility9.9 mi
Wind DirectionESE (105.2 °)

Weather ElementTotal
Precipitation---
Cooling Degree Days9 (Base 65)
Growing Degree Days24 (Base 50)
Averaged from 23 records on January 31, 2013
WEATHER CONDITIONS BREAKOUT
WIND DIRECTION BREAKOUT
WEATHER BY HOUR - JANUARY 31, 2013
[ °C ]   °F
Local TimeTemperatureDewpointHumidityBarometerVisibilityWind DirectionWind SpeedGust SpeedPrecipitationEventsConditions
1:53 AM68.0 °F63.0 °F84 %30.05 in10.0 miNW (310°)3.5 mphPartly Cloudy
2:53 AM66.0 °F63.0 °F90 %30.04 in9.0 miWNW (290°)5.8 mphPartly Cloudy
3:53 AM66.9 °F63.0 °F87 %30.04 in10.0 miNW (310°)4.6 mphPartly Cloudy
4:53 AM68.0 °F62.1 °F81 %30.04 in10.0 miNW (320°)5.8 mphPartly Cloudy
5:53 AM66.9 °F62.1 °F84 %30.04 in10.0 miWest (280°)3.5 mphPartly Cloudy
6:53 AM68.0 °F63.0 °F84 %30.06 in10.0 miWNW (290°)4.6 mphPartly Cloudy
7:53 AM71.1 °F63.0 °F75 %30.07 in10.0 miCalmScattered Clouds
8:53 AM75.0 °F63.0 °F66 %30.09 in8.0 miNE (50°)9.2 mphScattered Clouds
9:53 AM78.1 °F64.0 °F62 %30.10 in10.0 miNNE (20°)10.4 mph18.4 mphScattered Clouds
10:53 AM81.0 °F63.0 °F54 %30.10 in10.0 miNNE (20°)10.4 mphScattered Clouds
11:53 AM81.0 °F62.1 °F52 %30.08 in10.0 miENE (60°)11.5 mph18.4 mphScattered Clouds
12:53 PM81.0 °F62.1 °F52 %30.06 in10.0 miNE (50°)11.5 mphScattered Clouds
1:53 PM82.0 °F62.1 °F51 %30.04 in10.0 miNE (40°)15.0 mph20.7 mphScattered Clouds
2:53 PM81.0 °F62.1 °F52 %30.02 in10.0 miNNE (30°)15.0 mphScattered Clouds
3:53 PM80.1 °F63.0 °F56 %30.03 in10.0 miNNE (30°)16.1 mphScattered Clouds
4:53 PM78.1 °F63.0 °F60 %30.04 in10.0 miNE (40°)18.4 mph24.2 mphScattered Clouds
5:53 PM75.9 °F63.0 °F64 %30.05 in10.0 miNNE (30°)11.5 mphScattered Clouds
6:53 PM73.9 °F63.0 °F68 %30.07 in10.0 miNNE (30°)10.4 mphScattered Clouds
7:53 PM73.0 °F62.1 °F68 %30.08 in10.0 miNNE (30°)15.0 mph20.7 mphPartly Cloudy
8:53 PM73.0 °F62.1 °F68 %30.09 in10.0 miNE (40°)9.2 mphPartly Cloudy
9:53 PM72.0 °F62.1 °F71 %30.11 in10.0 miNE (50°)12.7 mphPartly Cloudy
10:53 PM72.0 °F62.1 °F71 %30.10 in10.0 miNE (40°)8.1 mphPartly Cloudy
11:53 PM72.0 °F62.1 °F71 %30.10 in10.0 miENE (60°)9.2 mph23.0 mphPartly Cloudy
Hourly data recorded from PHNL, located miles away from Honolulu, Hawaii







STORIES FROM OUR PARTNERS